[[{"header":{"parameterUnit":"m.s-1","parameterCategory":1,"la1":30.2991,"la2":30.254,"lo1":-89.0895,"lo2":-89.0444,"dy":0.0017,"dx":0.0017,"nx":28,"ny":28,"refTime":"2024-04-26T03:00:00:Z","depth":0,"parameterNumber":2,"parameterNumberName":"U-component_of_WINDS"},"data":[0,0,0,0,0,0,0,0,0,0,0,0,0,0,0,0,0,0,0,0,0,0,0,0,0,0,0,0,0,0,0,0,0,0,0,0,0,0,0,0,0,0,0,0,0,0,0,0,0,0,0,0,0,0,0,0,0,0,-5.2501,-5.2501,0,-5.2514,-5.2514,-5.2515,-5.2452,-5.245,-5.2448,-5.2446,-5.246,-5.2462,-5.2464,0,0,0,0,0,0,0,0,0,0,0,0,0,-5.2421,-5.2423,-5.2501,-5.2501,-5.2501,-5.2514,-5.2514,-5.2515,-5.2452,-5.245,-5.2448,-5.2445,-5.2459,-5.2462,-5.2464,0,0,0,0,0,0,0,0,0,0,0,0,0,-5.2447,-5.2424,-5.2501,-5.2471,-5.2469,-5.2514,-5.2514,-5.2515,-5.2452,-5.245,-5.2447,-5.2444,-5.2458,-5.2461,-5.2465,-5.2539,0,0,-5.2474,-5.2475,0,0,0,0,0,0,0,0,-5.2446,-5.245,-5.2475,-5.2473,-5.2471,-5.2478,-5.2491,-5.2523,-5.2453,-5.2459,-5.2446,-5.2443,-5.2468,-5.247,-5.2479,-5.2539,-5.254,-5.2474,-5.2476,-5.2477,-5.2478,0,0,0,0,0,0,0,-5.2444,-5.2449,-5.2506,-5.2476,-5.2473,-5.2458,-5.2459,-5.2497,-5.2479,-5.2458,-5.2453,-5.2456,-5.2466,-5.2476,-5.2479,-5.254,-5.2474,-5.2477,-5.2479,-5.248,-5.2662,-5.2665,0,0,0,0,0,0,-5.2446,-5.2448,-5.2506,-5.2506,-5.2451,-5.2462,-5.2462,-5.2479,-5.2478,-5.2475,-5.2458,-5.2453,-5.2472,-5.2475,-5.2479,-5.2564,-5.2477,-5.248,-5.2482,-5.2659,-5.2662,-5.2666,0,0,0,0,0,0,-5.2445,-5.2452,-5.2505,-5.2476,-5.2482,-5.2466,-5.2485,-5.248,-5.249,-5.2478,-5.2475,-5.2471,-5.247,-5.2475,-5.2524,-5.2564,-5.2482,-5.2485,-5.2655,-5.266,-5.2664,-5.2736,0,0,0,0,0,0,-5.2443,-5.2452,-5.2479,-5.2477,-5.2484,-5.255,-5.2487,-5.2483,-5.2495,-5.2489,-5.249,-5.2487,-5.2468,-5.252,-5.2527,-5.2567,-5.2487,-5.2652,-5.2657,-5.2663,-5.273,-5.2743,-5.2753,0,0,0,0,0,-5.244,-5.2499,-5.2481,-5.2488,-5.2518,-5.2552,-5.2556,-5.2533,-5.2499,-5.2526,-5.2519,-5.2487,-5.256,-5.2526,-5.2533,-5.2574,-5.2649,-5.2656,-5.2662,-5.2725,-5.274,-5.2753,0,0,0,0,0,0,-5.2505,-5.2498,-5.2478,-5.2538,-5.2546,-5.2541,-5.2575,-5.255,-5.2567,-5.256,-5.2531,-5.2532,-5.2586,-5.2586,-5.2548,-5.2646,-5.2598,-5.2607,-5.2643,-5.2658,-5.2669,-5.2666,-5.249,0,0,0,0,0,-5.2527,-5.2556,-5.2548,-5.2602,-5.2607,-5.2591,-5.2605,-5.2587,-5.2594,-5.2597,-5.2593,-5.2602,-5.2626,-5.2643,-5.2665,-5.2732,-5.273,-5.2764,-5.2776,-5.2785,-5.2791,-5.2826,-5.284,-5.2688,-5.2687,-5.2687,0,0,-5.2571,-5.2571,-5.259,-5.2615,-5.2619,-5.2649,-5.2594,-5.2628,-5.2649,-5.2602,-5.2647,-5.2646,-5.2654,-5.2712,-5.2738,-5.2713,-5.2834,-5.2794,-5.2801,-5.2802,-5.2834,-5.2849,-5.2861,-5.2692,-5.2691,-5.269,0,0,-5.2666,-5.267,-5.2714,-5.272,-5.2728,-5.2717,-5.2728,-5.2728,-5.2725,-5.2771,-5.2736,-5.2762,-5.2805,-5.2812,-5.2821,-5.2922,-5.2892,-5.293,-5.2989,-5.3023,-5.3035,-5.3045,-5.3079,-5.3092,-5.2938,-5.2938,-5.2938,0,-5.2719,-5.2763,-5.274,-5.2777,-5.2788,-5.2749,-5.2793,-5.28,-5.2815,-5.2823,-5.2797,-5.285,-5.2853,-5.2911,-5.2936,-5.2946,-5.2957,-5.2928,-5.3035,-5.3045,-5.3055,-5.3086,-5.3099,-5.2942,-5.2942,-5.2941,-5.2941,0,-5.2828,-5.2859,-5.2894,-5.2909,-5.2925,-5.2966,-5.2949,-5.2969,-5.2951,-5.2943,-5.2991,-5.2993,-5.3014,-5.3028,-5.3011,-5.3085,-5.3069,-5.304,-5.299,-5.3074,-5.3103,-5.3115,-5.2948,-5.2947,-5.2946,-5.2944,0,0,-5.2959,-5.2963,-5.2976,-5.2982,-5.299,-5.3013,-5.3053,-5.3074,-5.309,-5.3104,-5.3135,-5.3174,-5.3147,-5.3157,-5.3141,-5.3171,-5.3249,-5.3138,-5.3137,-5.3155,-5.3329,-5.3348,-5.3363,-5.3232,-5.3234,-5.3236,-5.3327,0,-5.305,-5.3116,-5.3099,-5.3165,-5.3193,-5.3157,-5.3192,-5.32,-5.3195,-5.3219,-5.3214,-5.324,-5.3204,-5.321,-5.3239,-5.3233,-5.3283,-5.3227,-5.3259,-5.326,-5.3254,-5.3378,-5.3399,-5.3484,-5.3339,-5.3341,-5.3342,0,-5.3164,-5.3181,-5.325,-5.3252,-5.3263,-5.3295,-5.3313,-5.3337,-5.3346,-5.334,-5.3353,-5.3332,-5.3371,-5.3325,-5.3378,-5.3341,-5.3354,-5.3354,-5.3357,-5.3355,-5.3303,-5.3377,-5.3511,-5.3523,-5.336,-5.3359,-5.3358,0,-5.3249,-5.329,-5.3336,-5.3344,-5.3349,-5.3371,-5.3374,-5.3381,-5.3395,-5.3412,-5.3421,-5.3443,-5.3454,-5.3472,-5.3457,-5.3425,-5.3512,-5.3465,-5.3507,-5.3507,-5.3523,-5.3521,-5.3658,-5.3538,-5.3538,-5.3538,-5.3538,0,-5.335,-5.3393,-5.3375,-5.3403,-5.345,-5.3431,-5.3478,-5.3478,-5.3485,-5.3512,-5.3485,-5.3511,-5.3491,-5.3516,-5.3506,-5.355,-5.3556,-5.3552,-5.3548,-5.3552,-5.3552,-5.3557,-5.3549,-5.3541,-5.354,-5.354,-5.3539,0,-5.3452,-5.3442,-5.3489,-5.3491,-5.3493,-5.3527,-5.3529,-5.3555,-5.355,-5.3585,-5.3592,-5.3583,-5.3612,-5.36,-5.363,-5.3622,-5.3679,-5.3669,-5.3675,-5.3671,-5.3712,-5.3707,-5.3853,-5.387,-5.3743,-5.3745,-5.3746,0,-5.3514,-5.3547,-5.3552,-5.3569,-5.3574,-5.3601,-5.3616,-5.3599,-5.3616,-5.363,-5.3654,-5.368,-5.3699,-5.3747,-5.3743,-5.3766,-5.3754,-5.3804,-5.3757,-5.376,-5.3751,-5.3748,-5.375,-5.3812,-5.3813,-5.3814,-5.3815,0,-5.3626,-5.362,-5.3642,-5.3663,-5.3682,-5.3698,-5.3711,-5.3726,-5.371,-5.3731,-5.3759,-5.3774,-5.3806,-5.3831,-5.3852,-5.3856,-5.3832,-5.3831,-5.3841,-5.3844,-5.3845,-5.3842,-5.3697,-5.3826,-5.3825,-5.3824,-5.3824,-5.3823,-5.3708,-5.3735,-5.3743,-5.3769,-5.3778,-5.3791,-5.3815,-5.3814,-5.3837,-5.3861,-5.3851,-5.3883,-5.3893,-5.3919,-5.3926,-5.3952,-5.3932,-5.3948,-5.3951,-5.3954,-5.3958,-5.3845,-5.3956,-5.3956,-5.3955,-5.3955,-5.3955,0,-5.3816,-5.382,-5.3844,-5.3864,-5.3885,-5.3863,-5.3878,-5.3896,-5.3925,-5.3936,-5.3957,-5.399,-5.4015,-5.4015,-5.4039,-5.4059,-5.4049,-5.4066,-5.4062,-5.4063,-5.3976,-5.3963,-5.4073,-5.4073,-5.4073,-5.4073,-5.4073,-5.4073,-5.3874,-5.3917,-5.3913,-5.3961,-5.3965,-5.3997,-5.4006,-5.4019,-5.4028,-5.4066,-5.4087,-5.4087,-5.4094,-5.4118,-5.4141,-5.414,-5.4149,-5.4168,-5.4164,-5.4081,-5.4069,-5.4058,-5.4045,-5.4171,-5.4172,-5.4248,-5.4249,-5.4249]},{"header":{"parameterUnit":"m.s-1","parameterCategory":1,"la1":30.2991,"la2":30.254,"lo1":-89.0895,"lo2":-89.0444,"dy":0.0017,"dx":0.0017,"nx":28,"ny":28,"refTime":"2024-04-26T03:00:00:Z","depth":0,"parameterNumber":3,"parameterNumberName":"V-component_of_WINDS"},"data":[0,0,0,0,0,0,0,0,0,0,0,0,0,0,0,0,0,0,0,0,0,0,0,0,0,0,0,0,0,0,0,0,0,0,0,0,0,0,0,0,0,0,0,0,0,0,0,0,0,0,0,0,0,0,0,0,0,0,4.3056,4.3056,0,4.3084,4.3085,4.3085,4.3115,4.3115,4.3115,4.3116,4.3141,4.3142,4.3142,0,0,0,0,0,0,0,0,0,0,0,0,0,4.3024,4.3024,4.3056,4.3056,4.3057,4.3084,4.3085,4.3085,4.3114,4.3115,4.3115,4.3116,4.3141,4.3142,4.3142,0,0,0,0,0,0,0,0,0,0,0,0,0,4.3043,4.3024,4.3056,4.3075,4.3077,4.3084,4.3085,4.3085,4.3114,4.3115,4.3116,4.3116,4.3141,4.3141,4.3142,4.3132,0,0,4.3143,4.3143,0,0,0,0,0,0,0,0,4.3042,4.3045,4.3071,4.3073,4.3076,4.3097,4.3083,4.3101,4.3114,4.31,4.3116,4.3116,4.3126,4.3127,4.3131,4.3133,4.3134,4.3143,4.3144,4.3144,4.3144,0,0,0,0,0,0,0,4.3041,4.3044,4.3067,4.3072,4.3074,4.3081,4.3084,4.3086,4.3109,4.3101,4.3103,4.3107,4.3127,4.3131,4.3132,4.3135,4.3143,4.3144,4.3144,4.3144,4.3131,4.3131,0,0,0,0,0,0,4.3037,4.3042,4.3066,4.3068,4.306,4.3081,4.3085,4.3089,4.3109,4.3113,4.3106,4.3108,4.313,4.3132,4.3133,4.3124,4.3144,4.3144,4.3144,4.3132,4.3131,4.3131,0,0,0,0,0,0,4.3036,4.3039,4.3065,4.3056,4.306,4.3081,4.3085,4.3089,4.3093,4.3113,4.3116,4.3106,4.313,4.3132,4.3133,4.3125,4.3144,4.3145,4.3133,4.3132,4.3131,4.3104,0,0,0,0,0,0,4.3035,4.3039,4.3036,4.3055,4.306,4.3065,4.3085,4.309,4.3095,4.3097,4.3114,4.3117,4.3131,4.3132,4.3133,4.3126,4.3145,4.3133,4.3132,4.3131,4.3106,4.3102,4.31,0,0,0,0,0,4.3034,4.3026,4.3035,4.3038,4.3057,4.3064,4.3067,4.3084,4.3094,4.3091,4.3103,4.3116,4.3126,4.3132,4.3133,4.3126,4.3134,4.3133,4.3131,4.3107,4.3103,4.31,0,0,0,0,0,0,4.3003,4.3029,4.3039,4.3038,4.3049,4.3069,4.3066,4.3079,4.3086,4.3088,4.3108,4.3112,4.311,4.3118,4.3124,4.3118,4.3132,4.3131,4.3113,4.3109,4.3106,4.3104,4.3145,0,0,0,0,0,4.2996,4.3001,4.3023,4.3019,4.3024,4.3044,4.3048,4.3061,4.3072,4.3077,4.3089,4.3099,4.3104,4.3107,4.3113,4.3107,4.3111,4.3103,4.31,4.3097,4.3096,4.3094,4.3091,4.3126,4.3126,4.3126,0,0,4.2981,4.2996,4.2997,4.3013,4.3023,4.3027,4.3048,4.305,4.3054,4.3077,4.3078,4.3088,4.31,4.3098,4.3097,4.3104,4.3087,4.3096,4.3093,4.3094,4.3092,4.3089,4.3086,4.3125,4.3125,4.3125,0,0,4.2956,4.2968,4.2967,4.2977,4.2993,4.3006,4.3006,4.3025,4.3033,4.3035,4.3053,4.3056,4.3064,4.3073,4.3078,4.3059,4.3071,4.306,4.3043,4.3041,4.3038,4.3036,4.3029,4.3026,4.3058,4.3058,4.3058,0,4.2936,4.2944,4.2964,4.2967,4.2973,4.2996,4.2995,4.3003,4.3019,4.3023,4.3031,4.3043,4.3053,4.3053,4.3049,4.3052,4.3052,4.3058,4.3037,4.3035,4.3033,4.3027,4.3024,4.3057,4.3057,4.3057,4.3057,0,4.2918,4.2923,4.292,4.2937,4.2943,4.2943,4.2963,4.2967,4.2979,4.2991,4.2993,4.3006,4.3016,4.3017,4.3028,4.3019,4.3023,4.3034,4.3048,4.3028,4.3023,4.302,4.3055,4.3055,4.3056,4.3056,0,0,4.2873,4.2903,4.2901,4.291,4.293,4.2933,4.2935,4.2946,4.2948,4.2959,4.296,4.2968,4.2979,4.2985,4.2997,4.2996,4.298,4.3007,4.3008,4.3002,4.297,4.2962,4.2958,4.2988,4.2988,4.2988,4.2969,0,4.2852,4.2858,4.2877,4.2876,4.2881,4.2904,4.2905,4.2917,4.2929,4.2934,4.2946,4.2952,4.2966,4.297,4.2969,4.2982,4.2973,4.2983,4.2989,4.2989,4.2985,4.2956,4.2946,4.2928,4.2967,4.2967,4.2966,0,4.2828,4.2839,4.2839,4.286,4.2863,4.2864,4.2876,4.2881,4.2895,4.2903,4.2911,4.2926,4.2928,4.2941,4.2945,4.2951,4.2954,4.2961,4.2961,4.2962,4.2976,4.2955,4.2923,4.292,4.2963,4.2963,4.2964,0,4.2796,4.2811,4.2813,4.282,4.2844,4.2844,4.2854,4.2868,4.2874,4.2884,4.2888,4.2897,4.2902,4.2909,4.2925,4.2934,4.2926,4.2941,4.2933,4.2933,4.293,4.293,4.2898,4.2933,4.2933,4.2933,4.2933,0,4.277,4.277,4.2799,4.2801,4.2801,4.2823,4.2822,4.2833,4.2846,4.285,4.2869,4.2872,4.2894,4.2899,4.2912,4.2913,4.2915,4.2921,4.2925,4.2919,4.2919,4.2922,4.2923,4.2932,4.2932,4.2932,4.2933,0,4.2734,4.2754,4.2759,4.2782,4.2788,4.2786,4.2806,4.2808,4.2821,4.2826,4.2828,4.2848,4.2855,4.2873,4.2884,4.2893,4.289,4.2896,4.2886,4.2888,4.2879,4.2879,4.2847,4.2844,4.2881,4.288,4.288,0,4.2717,4.2717,4.2741,4.2746,4.2755,4.2762,4.2769,4.279,4.2795,4.2812,4.2812,4.2821,4.2829,4.2839,4.2854,4.2863,4.2869,4.2857,4.2871,4.2866,4.2869,4.2869,4.2869,4.2854,4.2854,4.2853,4.2853,0,4.2684,4.2694,4.2703,4.2716,4.2724,4.2734,4.2746,4.2748,4.2772,4.2777,4.2785,4.2792,4.2804,4.2812,4.2824,4.2833,4.2846,4.2849,4.2848,4.2842,4.2836,4.2839,4.2878,4.2849,4.285,4.285,4.285,4.285,4.2657,4.2659,4.2676,4.2686,4.2697,4.2708,4.2711,4.2726,4.2734,4.2746,4.2758,4.2765,4.2779,4.2796,4.2804,4.2809,4.2816,4.2814,4.2814,4.2813,4.2811,4.2836,4.2811,4.2811,4.2812,4.2812,4.2812,0,4.2625,4.2638,4.2647,4.2663,4.2671,4.2685,4.2699,4.2704,4.271,4.2723,4.2731,4.2741,4.2749,4.2766,4.2775,4.2776,4.2783,4.2778,4.2778,4.278,4.2804,4.2804,4.2773,4.2773,4.2773,4.2773,4.2773,4.2773,4.261,4.2614,4.2626,4.2636,4.2648,4.2657,4.2663,4.2673,4.2683,4.2694,4.2701,4.2713,4.2727,4.2738,4.2746,4.2751,4.2753,4.2746,4.2753,4.2774,4.2778,4.2782,4.2782,4.2747,4.2747,4.2729,4.2728,4.2728]}]]